Weather History for Covington, KY

Change the Weather History Date:

Tuesday, March 19, 2013

  Actual Average Record
Temperature  
Mean Temperature 37 °F 45 °F  
Max Temperature 45 °F 54 °F 81 °F (1907)
Min Temperature 28 °F 35 °F 11 °F (1934)
Degree Days  
Heating Degree Days 28 20  
Month to date heating degree days 525 448  
Since 1 July heating degree days 4235 4275  
Cooling Degree Days 0 0  
Month to date cooling degree days 0 0  
Year to date cooling degree days 0 0  
Moisture  
Dew Point 20 °F    
Average Humidity 57    
Maximum Humidity 85    
Minimum Humidity 29    
Precipitation  
Precipitation 0.00 in 0.14 in 2.97 in (1943)
Month to date precipitation 3.30 2.28  
Year to date precipitation 8.90 8.09  
Snow  
Snow 0.00 in 0.10 in 3.50 in (1951)
Month to date snowfall 5.5 2.2  
Since 1 July snowfall 21.9 20.8  
Snow Depth 0.00 in    
Sea Level Pressure  
Sea Level Pressure 30.01 in    
Wind  
Wind Speed 16 mph (West)    
Max Wind Speed 31 mph    
Max Gust Speed 39 mph    
Visibility 10 miles    
Events      
T = Trace of Precipitation, MM = Missing Value Source: NWS Daily Summary

Daily Weather History Graph

Daily Weather History Graph

Search for Another Location

Airport:

Trip Planner

Search our weather history database for the weather conditions in past years. The results will help you decide how hot, cold, wet, or windy it might be!

Date:

Astronomy

Mar. 19, 2013 Rise Set
Actual Time 7:43 AM EDT 7:49 PM EDT
Civil Twilight 7:16 AM EDT 8:16 PM EDT
Nautical Twilight 6:45 AM EDT 8:47 PM EDT
Astronomical Twilight 6:14 AM EDT 9:19 PM EDT
Moon 12:35 PM EDT (3/19) 2:33 AM EDT (3/19)
Length of Visible Light 12h 59m
Length of Day
12h 06m
Waxing Crescent, 49% of the Moon is Illuminated
Mar 19
Waxing Crescent
Mar 19
First Quarter
Mar 27
Full
Apr 3
Last Quarter
Apr 10
New

Hourly Weather History & Observations

Time (EDT) Temp. Windchill Dew Point Humidity Pressure Visibility Wind Dir Wind Speed Gust Speed Precip Events Conditions
1:52 AM 37.4 °F 32.1 °F 32.0 °F 81% 29.85 in 10.0 mi SW 6.9 mph - N/A   Clear
2:52 AM 37.0 °F 29.8 °F 33.1 °F 86% 29.89 in 10.0 mi SW 10.4 mph - N/A   Mostly Cloudy
3:52 AM 37.0 °F 29.3 °F 32.0 °F 82% 29.88 in 10.0 mi West 11.5 mph - N/A   Partly Cloudy
4:52 AM 37.0 °F 29.8 °F 30.0 °F 76% 29.89 in 10.0 mi West 10.4 mph - N/A   Mostly Cloudy
5:52 AM 33.1 °F 21.9 °F 19.0 °F 56% 29.92 in 10.0 mi West 18.4 mph 26.5 mph N/A   Clear
6:52 AM 30.9 °F 18.7 °F 18.0 °F 59% 29.95 in 10.0 mi West 19.6 mph 28.8 mph N/A   Clear
7:52 AM 28.9 °F 17.3 °F 17.1 °F 61% 29.96 in 10.0 mi West 16.1 mph 27.6 mph N/A   Partly Cloudy
8:52 AM 28.9 °F 17.3 °F 17.1 °F 61% 29.99 in 10.0 mi West 16.1 mph 21.9 mph N/A   Partly Cloudy
9:52 AM 30.9 °F 19.8 °F 19.0 °F 61% 29.99 in 10.0 mi WSW 16.1 mph 24.2 mph N/A   Clear
10:52 AM 33.1 °F 21.5 °F 19.9 °F 59% 30.01 in 10.0 mi West 19.6 mph 28.8 mph N/A   Partly Cloudy
11:52 AM 36.0 °F 25.6 °F 19.0 °F 50% 30.01 in 10.0 mi West 18.4 mph 29.9 mph N/A   Partly Cloudy
12:52 PM 39.0 °F 29.9 °F 21.0 °F 49% 30.01 in 10.0 mi West 17.3 mph 31.1 mph N/A   Clear
1:52 PM 41.0 °F 31.4 °F 18.0 °F 40% 30.03 in 10.0 mi WSW 21.9 mph 29.9 mph N/A   Partly Cloudy
2:52 PM 42.1 °F 32.1 °F 17.1 °F 37% 30.04 in 10.0 mi West 25.3 mph 36.8 mph N/A   Partly Cloudy
3:52 PM 44.1 °F 35.2 °F 18.0 °F 35% 30.05 in 10.0 mi West 23.0 mph 35.7 mph N/A   Partly Cloudy
4:52 PM 44.1 °F 34.2 °F 15.1 °F 31% 30.07 in 10.0 mi WNW 28.8 mph 39.1 mph N/A   Partly Cloudy
5:52 PM 44.1 °F 35.4 °F 16.0 °F 32% 30.07 in 10.0 mi West 21.9 mph 28.8 mph N/A   Partly Cloudy
6:52 PM 42.1 °F 33.1 °F 12.0 °F 29% 30.09 in 10.0 mi WNW 20.7 mph - N/A   Partly Cloudy
7:52 PM 39.0 °F 30.6 °F 14.0 °F 36% 30.10 in 10.0 mi West 15.0 mph - N/A   Scattered Clouds
8:52 PM 37.0 °F 29.3 °F 16.0 °F 42% 30.12 in 10.0 mi West 11.5 mph - N/A   Mostly Cloudy
9:52 PM 36.0 °F 31.1 °F 15.1 °F 43% 30.13 in 10.0 mi West 5.8 mph - N/A   Scattered Clouds
10:52 PM 35.1 °F 28.6 °F 15.1 °F 44% 30.13 in 10.0 mi WSW 8.1 mph - N/A   Partly Cloudy
11:52 PM 35.1 °F 28.6 °F 16.0 °F 46% 30.13 in 10.0 mi WSW 8.1 mph - N/A   Clear